Location: Brienzwiler
(46.7508°N, 8.1014°E)
Time: 16:52:45
(UTC+00:00)

MTI - Pass Details

Date: 05 July 2020
Orbit: 393 x 404 km, 97.5° (Epoch: 11 August)

Event Time Altitude Azimuth Distance (km) Brightness Sun altitude
Rises 21:47:07 0° 11° (N) 2,316 8.4 -16.6°
Reaches altitude 10° 21:49:07 10° 9° (N) 1,450 7.3 -16.8°
Maximum altitude 21:52:12 74° 284° (WNW) 418 3.7 -17.0°
Enters shadow 21:53:10 39° 209° (SSW) 605 4.2 -17.0°
